sim
Sign-in with your pilot id or email,
or register
Callsign
Passwort

Schedule Details

Flight Number: RYR9974 (2)
Departure: Bologna Guglielmo Marconi Airport (LIPE) at 14:15
Arrival: Thessaloniki International Airport (LGTS) at 16:10
Route: Ryanair Passenger Schedule. Enter filed route here before submitting Pirep.

Weather Information
Getting current METAR information for LIPE 192150Z 21004KT 170V240 CAVOK 11/06 Q1028
Getting current METAR information for LGTS 192150Z 03005KT 9999 FEW020 13/09 Q1023 NOSIG

Schedule Frequency

Route Map